Liberal, Kansas, United States (67901)
Lat: 37.04N, Lon: 100.92W
Wx Zone: KSZ086
Local Info
Past Weather Observations for Saturday, August 27, 2016

NOTE: This archive is for the closest National Weather Service station to Liberal. Information may differ from the station used for current weather conditions.

Click here for Long-term Archive

Time Weather Temperature Dewpoint Humidity Pressure Winds Precip Visibility
23:55
Clear
70°F / 21°C 61°F / 16°C 73% 30.09 in
(1019 mb)
S 13.8 mph
(S 22 kph)
- 10SM
23:35
Clear
66°F / 19°C 59°F / 15°C 78% 30.06 in
(1018 mb)
S 11.5 mph
(S 19 kph)
- 10SM
23:15
Clear
66°F / 19°C 57°F / 14°C 73% 30.09 in
(1019 mb)
SSE 15 mph
(SSE 24 kph)
- 10SM
22:55
Clear
66°F / 19°C 57°F / 14°C 73% 30.09 in
(1019 mb)
SSE 12.7 mph
(SSE 20 kph)
- 10SM
22:35
Clear
66°F / 19°C 57°F / 14°C 73% 30.09 in
(1019 mb)
SSE 12.7 mph
(SSE 20 kph)
- 10SM
22:15
Partly Cloudy
66°F / 19°C 57°F / 14°C 73% 30.09 in
(1019 mb)
SSE 10.4 mph
(SSE 17 kph)
- 10SM
21:55
Mostly Cloudy
66°F / 19°C 57°F / 14°C 73% 30.09 in
(1019 mb)
SSE 9.2 mph
(SSE 15 kph)
- 10SM
21:35
Mostly Cloudy
68°F / 20°C 57°F / 14°C 69% 30.09 in
(1019 mb)
SSE 10.4 mph
(SSE 17 kph)
- 10SM
21:15
Partly Cloudy
68°F / 20°C 57°F / 14°C 69% 30.09 in
(1019 mb)
SE 9.2 mph
(SE 15 kph)
- 10SM
20:55
Clear
70°F / 21°C 57°F / 14°C 64% 30.09 in
(1019 mb)
SE 11.5 mph
(SE 19 kph)
- 10SM
20:35
Clear
70°F / 21°C 59°F / 15°C 69% 30.06 in
(1018 mb)
SE 9.2 mph
(SE 15 kph)
- 10SM
20:15
Clear
72°F / 22°C 57°F / 14°C 61% 30.06 in
(1018 mb)
SE 13.8 mph
(SE 22 kph)
- 10SM
19:55
Clear
72°F / 22°C 59°F / 15°C 65% 30.04 in
(1017 mb)
SE 11.5 mph
(SE 19 kph)
- 10SM
19:35
Clear
72°F / 22°C 59°F / 15°C 65% 30.04 in
(1017 mb)
SE 11.5 mph
(SE 19 kph)
- 10SM
19:15
Clear
73°F / 23°C 61°F / 16°C 65% 30.01 in
(1016 mb)
SE 10.4 mph
(SE 17 kph)
- 10SM
18:55
Clear
75°F / 24°C 61°F / 16°C 61% 30.01 in
(1016 mb)
SE 9.2 mph
(SE 15 kph)
- 10SM
18:35
Clear
75°F / 24°C 61°F / 16°C 61% 30.01 in
(1016 mb)
SE 8.1 mph
(SE 13 kph)
- 10SM
18:15
Clear
75°F / 24°C 61°F / 16°C 61% 30.01 in
(1016 mb)
SE 8.1 mph
(SE 13 kph)
- 10SM
17:55
Clear
73°F / 23°C 57°F / 14°C 57% 30.01 in
(1016 mb)
S 8.1 mph
(S 13 kph)
- 10SM
17:35
Clear
75°F / 24°C 57°F / 14°C 54% 30.01 in
(1016 mb)
SSE 9.2 mph
(SSE 15 kph)
- 10SM
17:15
Clear
79°F / 26°C 59°F / 15°C 51% 30.04 in
(1017 mb)
SSE 15 mph
(SSE 24 kph)
- 10SM
16:55
Clear
81°F / 27°C 57°F / 14°C 45% 30.01 in
(1016 mb)
S 15 mph
(S 24 kph)
- 10SM
16:35
Clear
82°F / 28°C 61°F / 16°C 48% 30.01 in
(1016 mb)
S 16.1 mph
(S 26 kph)
- 10SM
16:15
Clear
84°F / 29°C 61°F / 16°C 45% 29.98 in
(1015 mb)
S 19.6 mph
(S 32 kph)
- 10SM
15:55
Clear
82°F / 28°C 61°F / 16°C 48% 29.98 in
(1015 mb)
S 12.7 mph
(S 20 kph)
- 10SM
15:35
Clear
79°F / 26°C 61°F / 16°C 54% 30.01 in
(1016 mb)
S 16.1 mph
(S 26 kph)
- 10SM
15:15
Partly Cloudy
79°F / 26°C 63°F / 17°C 58% 30.01 in
(1016 mb)
S 16.1 mph
(S 26 kph)
- 10SM
14:55
Clear
Thunder Storms
81°F / 27°C 63°F / 17°C 54% 30.04 in
(1017 mb)
S 17.3 mph
(S 28 kph)
- 10SM
14:35
Clear
Thunder Storms
82°F / 28°C 63°F / 17°C 51% 30.01 in
(1016 mb)
S 18.4 mph
(S 30 kph)
- 10SM
14:15
Clear
88°F / 31°C 64°F / 18°C 46% 30.01 in
(1016 mb)
SE 17.3 mph
(SE 28 kph)
- 10SM
13:55
Partly Cloudy
88°F / 31°C 64°F / 18°C 46% 30.01 in
(1016 mb)
S 11.5 mph
(S 19 kph)
- 10SM
13:35
Clear
88°F / 31°C 64°F / 18°C 46% 30.04 in
(1017 mb)
SSE 12.7 mph
(SSE 20 kph)
- 10SM
13:15
Clear
88°F / 31°C 64°F / 18°C 46% 30.04 in
(1017 mb)
SSE 13.8 mph
(SSE 22 kph)
- 10SM
12:55
Clear
86°F / 30°C 64°F / 18°C 49% 30.04 in
(1017 mb)
S 12.7 mph
(S 20 kph)
- 10SM
12:35
Clear
84°F / 29°C 64°F / 18°C 51% 30.04 in
(1017 mb)
S 13.8 mph
(S 22 kph)
- 10SM
12:15
Clear
84°F / 29°C 64°F / 18°C 51% 30.06 in
(1018 mb)
S 11.5 mph
(S 19 kph)
- 10SM
11:55
Clear
81°F / 27°C 63°F / 17°C 54% 30.06 in
(1018 mb)
S 8.1 mph
(S 13 kph)
- 10SM
11:35
Clear
81°F / 27°C 63°F / 17°C 54% 30.06 in
(1018 mb)
S 8.1 mph
(S 13 kph)
- 10SM
11:15
Clear
81°F / 27°C 63°F / 17°C 54% 30.06 in
(1018 mb)
S 13.8 mph
(S 22 kph)
- 10SM
10:55
Clear
79°F / 26°C 63°F / 17°C 58% 30.06 in
(1018 mb)
SSE 10.4 mph
(SSE 17 kph)
- 10SM
10:35
Clear
79°F / 26°C 63°F / 17°C 58% 30.06 in
(1018 mb)
S 9.2 mph
(S 15 kph)
- 10SM
10:15
Clear
77°F / 25°C 63°F / 17°C 61% 30.09 in
(1019 mb)
SW 10.4 mph
(SW 17 kph)
- 10SM
09:55
Clear
75°F / 24°C 63°F / 17°C 65% 30.09 in
(1019 mb)
SSE 11.5 mph
(SSE 19 kph)
- 10SM
09:35
Clear
73°F / 23°C 63°F / 17°C 69% 30.09 in
(1019 mb)
SSE 11.5 mph
(SSE 19 kph)
- 10SM
09:15
Clear
72°F / 22°C 61°F / 16°C 69% 30.09 in
(1019 mb)
SSE 10.4 mph
(SSE 17 kph)
- 10SM
08:55
Clear
70°F / 21°C 61°F / 16°C 73% 30.09 in
(1019 mb)
SE 12.7 mph
(SE 20 kph)
- 10SM
08:35
Clear
70°F / 21°C 61°F / 16°C 73% 30.09 in
(1019 mb)
SSE 13.8 mph
(SSE 22 kph)
- 10SM
08:15
Clear
70°F / 21°C 61°F / 16°C 73% 30.06 in
(1018 mb)
SE 12.7 mph
(SE 20 kph)
- 10SM
07:55
Clear
70°F / 21°C 61°F / 16°C 73% 30.09 in
(1019 mb)
SE 10.4 mph
(SE 17 kph)
- 10SM
07:35
Clear
66°F / 19°C 59°F / 15°C 78% 30.09 in
(1019 mb)
ESE 9.2 mph
(ESE 15 kph)
- 10SM
07:15
Clear
66°F / 19°C 57°F / 14°C 73% 30.09 in
(1019 mb)
SE 8.1 mph
(SE 13 kph)
- 10SM
06:55
Clear
64°F / 18°C 57°F / 14°C 78% 30.09 in
(1019 mb)
ESE 10.4 mph
(ESE 17 kph)
- 10SM
06:35
Clear
63°F / 17°C 57°F / 14°C 83% 30.06 in
(1018 mb)
SE 5.8 mph
(SE 9 kph)
- 10SM
06:15
Clear
63°F / 17°C 55°F / 13°C 77% 30.06 in
(1018 mb)
E 10.4 mph
(E 17 kph)
- 10SM
05:55
Clear
63°F / 17°C 55°F / 13°C 77% 30.06 in
(1018 mb)
SW 6.9 mph
(SW 11 kph)
- 10SM
05:35
Clear
63°F / 17°C 55°F / 13°C 77% 30.06 in
(1018 mb)
SSW 8.1 mph
(SSW 13 kph)
- 10SM
05:15
Clear
63°F / 17°C 55°F / 13°C 77% 30.04 in
(1017 mb)
SSW 9.2 mph
(SSW 15 kph)
- 10SM
04:55
Clear
63°F / 17°C 55°F / 13°C 77% 30.06 in
(1018 mb)
SSW 9.2 mph
(SSW 15 kph)
- 10SM
04:35
Clear
63°F / 17°C 55°F / 13°C 77% 30.04 in
(1017 mb)
SSW 8.1 mph
(SSW 13 kph)
- 10SM
04:15
Clear
63°F / 17°C 55°F / 13°C 77% 30.04 in
(1017 mb)
SSW 8.1 mph
(SSW 13 kph)
- 10SM
03:55
Clear
63°F / 17°C 55°F / 13°C 77% 30.04 in
(1017 mb)
SSW 5.8 mph
(SSW 9 kph)
- 10SM
03:35
Clear
64°F / 18°C 55°F / 13°C 73% 30.06 in
(1018 mb)
SSW 5.8 mph
(SSW 9 kph)
- 10SM
03:15
Clear
64°F / 18°C 55°F / 13°C 73% 30.06 in
(1018 mb)
Calm - 10SM
02:55
Clear
64°F / 18°C 55°F / 13°C 73% 30.06 in
(1018 mb)
S 3.5 mph
(S 6 kph)
- 10SM
02:35
Clear
64°F / 18°C 57°F / 14°C 78% 30.04 in
(1017 mb)
SW 4.6 mph
(SW 7 kph)
- 10SM
02:15
Clear
64°F / 18°C 57°F / 14°C 78% 30.04 in
(1017 mb)
SW 5.8 mph
(SW 9 kph)
- 10SM
01:55
Clear
66°F / 19°C 57°F / 14°C 73% 30.04 in
(1017 mb)
SW 8.1 mph
(SW 13 kph)
- 10SM
01:35
Clear
66°F / 19°C 59°F / 15°C 78% 30.04 in
(1017 mb)
SW 8.1 mph
(SW 13 kph)
- 10SM
01:15
Clear
66°F / 19°C 61°F / 16°C 83% 30.04 in
(1017 mb)
SSW 9.2 mph
(SSW 15 kph)
- 10SM
00:55
Clear
68°F / 20°C 61°F / 16°C 78% 30.04 in
(1017 mb)
SW 5.8 mph
(SW 9 kph)
- 10SM
00:35
Clear
68°F / 20°C 61°F / 16°C 78% 30.06 in
(1018 mb)
SW 6.9 mph
(SW 11 kph)
- 10SM
00:15
Clear
68°F / 20°C 61°F / 16°C 78% 30.06 in
(1018 mb)
S 8.1 mph
(S 13 kph)
- 10SM
Time Weather Temperature Dewpoint Humidity Pressure Winds Precip Visibility


Weather for websites

WeatherForYou.com, LLC is not responsible for any damages or problems caused by this service. Current weather conditions are obtained from the closest station including government and personal stations which may have varying degrees of accuracy. Weather forecasts are derived from the NOAA NDFD. Like all things, this site belongs to Jesus Christ... He just trusts us to maintain it. If you have any questions or comments email webmaster@weatherforyou.com

Copyright © 2016, WeatherForYou.com LLC. All rights reserved.